SR8WXE Weather Reports


time (UTC)temp
C
wind
direction
speed
KPH
gust
KPH
rain 1hr
cm
rain 24hr
cm
rain mn
cm
humidity
%
barometer
mb
20260506115157 23 261 14.5 30.6 0.00 0.00 0.00 28 1008.4
20260506114657 23 209 14.5 30.6 0.00 0.00 0.00 31 1008.4
20260506114157 23 157 16.1 24.1 0.00 0.00 0.00 30 1008.5
20260506113656 23 254 8.0 19.3 0.00 0.00 0.00 31 1008.4
20260506113156 23 258 6.4 27.4 0.00 0.00 0.00 31 1008.4
20260506112656 23 153 8.0 33.8 0.00 0.00 0.00 30 1008.6
20260506112156 23 182 17.7 27.4 0.00 0.00 0.00 32 1008.4
20260506111655 23 178 8.0 30.6 0.00 0.00 0.00 31 1008.6
20260506111155 23 220 14.5 24.1 0.00 0.00 0.00 31 1008.5
20260506110655 22 217 12.9 33.8 0.00 0.00 0.00 31 1008.7
20260506110155 22 199 11.3 33.8 0.00 0.00 0.00 31 1008.6
20260506105654 22 209 29.0 32.2 0.00 0.00 0.00 31 1008.6
20260506105154 22 236 19.3 45.1 0.00 0.00 0.00 32 1008.7
20260506104654 22 216 17.7 35.4 0.00 0.00 0.00 31 1008.7
20260506104153 22 219 11.3 38.6 0.00 0.00 0.00 31 1008.7
20260506103653 22 198 22.5 43.5 0.00 0.00 0.00 30 1008.7
20260506103153 22 220 8.0 43.5 0.00 0.00 0.00 31 1008.7
20260506102653 22 206 20.9 38.6 0.00 0.00 0.00 31 1008.7
20260506102152 22 255 9.7 33.8 0.00 0.00 0.00 30 1008.6
20260506101652 22 225 9.7 30.6 0.00 0.00 0.00 31 1008.7
20260506101152 22 215 12.9 29.0 0.00 0.00 0.00 31 1008.7
20260506100651 22 187 20.9 32.2 0.00 0.00 0.00 30 1008.7
20260506100151 22 225 11.3 41.8 0.00 0.00 0.00 30 1008.8
20260506095651 22 209 22.5 29.0 0.00 0.00 0.00 29 1008.7
20260506095151 22 196 19.3 32.2 0.00 0.00 0.00 29 1008.7
20260506094650 22 272 8.0 40.2 0.00 0.00 0.00 29 1008.7
20260506094150 22 139 12.9 29.0 0.00 0.00 0.00 29 1008.7
20260506093650 22 230 29.0 35.4 0.00 0.00 0.00 29 1008.8
20260506093149 22 191 22.5 38.6 0.00 0.00 0.00 31 1008.8
20260506092649 22 212 8.0 40.2 0.00 0.00 0.00 31 1008.8
20260506092149 22 180 9.7 24.1 0.00 0.00 0.00 33 1008.8
20260506091649 22 246 3.2 32.2 0.00 0.00 0.00 32 1008.8
20260506091148 21 175 11.3 29.0 0.00 0.00 0.00 33 1008.8
20260506090648 21 223 14.5 30.6 0.00 0.00 0.00 32 1008.9
20260506090148 22 136 27.4 32.2 0.00 0.00 0.00 32 1008.9
20260506085647 21 175 17.7 24.1 0.00 0.00 0.00 33 1008.7
20260506085147 21 209 17.7 32.2 0.00 0.00 0.00 32 1008.8
20260506084647 21 165 14.5 37.0 0.00 0.00 0.00 32 1008.7
20260506084147 21 192 9.7 35.4 0.00 0.00 0.00 32 1008.7
20260506083646 21 236 14.5 30.6 0.00 0.00 0.00 32 1008.7
20260506083146 21 181 9.7 25.7 0.00 0.00 0.00 34 1008.6
20260506082646 21 210 17.7 30.6 0.00 0.00 0.00 32 1008.7
20260506082146 21 229 16.1 41.8 0.00 0.00 0.00 32 1008.6
20260506081645 21 156 9.7 32.2 0.00 0.00 0.00 33 1008.6
20260506081145 21 215 12.9 30.6 0.00 0.00 0.00 34 1008.6
20260506080645 21 172 14.5 35.4 0.00 0.00 0.00 33 1008.6
20260506080144 21 254 8.0 38.6 0.00 0.00 0.00 35 1008.6
20260506073143 20 172 14.5 35.4 0.00 0.00 0.00 34 1008.6
20260506072642 20 260 9.7 38.6 0.00 0.00 0.00 35 1008.6
20260506072142 20 196 4.8 30.6 0.00 0.00 0.00 36 1008.5
20260506071642 20 217 8.0 29.0 0.00 0.00 0.00 37 1008.5
20260506071142 20 217 22.5 30.6 0.00 0.00 0.00 36 1008.5
20260506070641 20 206 14.5 32.2 0.00 0.00 0.00 38 1008.4
20260506070141 20 181 4.8 30.6 0.00 0.00 0.00 38 1008.4
20260506062139 18 142 0.0 19.3 0.00 0.00 0.00 41 1008.5
20260506061638 18 198 3.2 14.5 0.00 0.00 0.00 41 1008.5
20260506061138 18 165 1.6 20.9 0.00 0.00 0.00 41 1008.5
20260506060638 18 149 4.8 12.9 0.00 0.00 0.00 41 1008.6
20260506060138 18 189 8.0 16.1 0.00 0.00 0.00 41 1008.7
20260506051135 18 289 9.7 19.3 0.00 0.00 0.00 40 1008.9
20260506050634 18 210 8.0 22.5 0.00 0.00 0.00 39 1008.8
20260506050134 18 205 11.3 22.5 0.00 0.00 0.00 39 1008.8
20260506045134 18 227 9.7 20.9 0.00 0.00 0.00 39 1008.7
20260506044633 18 240 11.3 12.9 0.00 0.00 0.00 40 1008.8
20260506044133 17 227 12.9 17.7 0.00 0.00 0.00 40 1008.7
20260506043633 17 223 1.6 16.1 0.00 0.00 0.00 42 1008.7
20260506043132 16 226 9.7 17.7 0.00 0.00 0.00 45 1008.6
20260506042632 15 143 0.0 3.2 0.00 0.00 0.00 48 1008.6
20260506042132 15 156 0.0 0.0 0.00 0.00 0.00 50 1008.6
20260506041632 14 156 0.0 0.0 0.00 0.00 0.00 50 1008.6
20260506041131 15 156 0.0 0.0 0.00 0.00 0.00 51 1008.6
20260506040631 15 156 0.0 0.0 0.00 0.00 0.00 48 1008.6
20260506040131 15 156 0.0 0.0 0.00 0.00 0.00 47 1008.7
20260506035631 15 156 0.0 0.0 0.00 0.00 0.00 46 1008.7
20260506035130 15 156 0.0 0.0 0.00 0.00 0.00 46 1008.7
20260506034630 15 156 0.0 0.0 0.00 0.00 0.00 45 1008.7
20260506034130 15 156 0.0 1.6 0.00 0.00 0.00 46 1008.7
20260506033629 15 209 0.0 4.8 0.00 0.00 0.00 46 1008.8
20260506033129 15 189 0.0 4.8 0.00 0.00 0.00 46 1008.7
20260506032629 14 98 0.0 1.6 0.00 0.00 0.00 46 1008.7
20260506032129 14 206 1.6 9.7 0.00 0.00 0.00 46 1008.7
20260506031628 14 189 4.8 4.8 0.00 0.00 0.00 46 1008.7
20260506031128 14 115 0.0 1.6 0.00 0.00 0.00 47 1008.7
20260506030628 13 115 1.6 3.2 0.00 0.00 0.00 49 1008.7
20260506030127 13 113 0.0 4.8 0.00 0.00 0.00 50 1008.6
20260506025627 12 106 0.0 8.0 0.00 0.00 0.00 54 1008.7
20260506025127 11 132 0.0 6.4 0.00 0.00 0.00 58 1008.8
20260506024627 10 161 0.0 0.0 0.00 0.00 0.00 63 1008.8
20260506024126 10 161 0.0 0.0 0.00 0.00 0.00 66 1008.8
20260506023626 9 161 0.0 3.2 0.00 0.00 0.00 67 1008.9
20260506023126 9 127 0.0 0.0 0.00 0.00 0.00 67 1008.9
20260506022625 9 127 0.0 0.0 0.00 0.00 0.00 66 1008.9
20260506022125 10 127 0.0 0.0 0.00 0.00 0.00 66 1008.9
20260506021625 10 127 0.0 0.0 0.00 0.00 0.00 66 1008.9
20260506021125 10 127 0.0 0.0 0.00 0.00 0.00 65 1008.8
20260506020624 10 127 0.0 0.0 0.00 0.00 0.00 64 1008.8
20260506020124 10 127 0.0 0.0 0.00 0.00 0.00 63 1008.8
20260506015624 10 127 0.0 0.0 0.00 0.00 0.00 63 1008.7
20260506015123 10 127 0.0 0.0 0.00 0.00 0.00 63 1008.7
20260506014623 10 127 0.0 0.0 0.00 0.00 0.00 62 1008.7
20260506014123 10 127 0.0 0.0 0.00 0.00 0.00 60 1008.8
20260506013623 10 127 0.0 0.0 0.00 0.00 0.00 58 1008.8
20260506013122 11 127 0.0 0.0 0.00 0.00 0.00 57 1008.8
20260506012622 11 127 0.0 0.0 0.00 0.00 0.00 56 1008.8
20260506012122 11 127 0.0 0.0 0.00 0.00 0.00 55 1008.8
20260506011621 11 127 0.0 0.0 0.00 0.00 0.00 54 1008.8
20260506011121 12 127 0.0 0.0 0.00 0.00 0.00 51 1008.7
20260506010621 12 127 0.0 0.0 0.00 0.00 0.00 50 1008.8
20260506010121 13 127 0.0 0.0 0.00 0.00 0.00 47 1008.8
20260506005620 13 127 0.0 0.0 0.00 0.00 0.00 46 1008.8
20260506005120 13 127 0.0 0.0 0.00 0.00 0.00 44 1008.7
20260506004620 13 127 0.0 0.0 0.00 0.00 0.00 43 1008.7
20260506004120 13 127 0.0 0.0 0.00 0.00 0.00 43 1008.7
20260506003619 13 127 0.0 0.0 0.00 0.00 0.00 43 1008.7
20260506003119 13 127 0.0 0.0 0.00 0.00 0.00 42 1008.7
20260506002619 14 127 0.0 0.0 0.00 0.00 0.00 41 1008.7
20260506002118 14 127 0.0 0.0 0.00 0.00 0.00 41 1008.7
20260506001618 15 127 0.0 0.0 0.00 0.00 0.00 40 1008.7
20260506001118 15 127 0.0 0.0 0.00 0.00 0.00 39 1008.7
20260506000618 15 127 0.0 0.0 0.00 0.00 0.00 38 1008.7
20260506000117 15 127 0.0 0.0 0.00 0.00 0.00 38 1008.6
20260505235617 15 127 0.0 0.0 0.00 0.00 0.00 38 1008.6
20260505235117 15 127 0.0 6.4 0.00 0.00 0.00 39 1008.5
20260505234616 15 168 0.0 4.8 0.00 0.00 0.00 39 1008.5
20260505234116 15 184 0.0 8.0 0.00 0.00 0.00 39 1008.5
20260505233616 14 151 0.0 0.0 0.00 0.00 0.00 41 1008.5
20260505233116 14 151 0.0 0.0 0.00 0.00 0.00 42 1008.5
20260505232615 14 151 0.0 0.0 0.00 0.00 0.00 42 1008.6
20260505232115 14 151 0.0 0.0 0.00 0.00 0.00 41 1008.6
20260505231615 15 151 0.0 0.0 0.00 0.00 0.00 41 1008.6
20260505231114 15 151 0.0 0.0 0.00 0.00 0.00 38 1008.6
20260505230614 15 151 0.0 0.0 0.00 0.00 0.00 37 1008.7
20260505230114 15 151 0.0 0.0 0.00 0.00 0.00 36 1008.6
20260505225614 16 151 0.0 0.0 0.00 0.00 0.00 36 1008.7
20260505225113 16 151 0.0 0.0 0.00 0.00 0.00 36 1008.7
20260505224613 16 151 0.0 0.0 0.00 0.00 0.00 36 1008.8
20260505224113 16 151 0.0 0.0 0.00 0.00 0.00 35 1008.7
20260505223612 16 151 0.0 0.0 0.00 0.00 0.00 35 1008.7
20260505223112 16 151 0.0 0.0 0.00 0.00 0.00 33 1008.8
20260505222612 16 151 0.0 4.8 0.00 0.00 0.00 33 1008.8
20260505222112 16 158 0.0 8.0 0.00 0.00 0.00 33 1008.8
20260505221611 16 165 0.0 8.0 0.00 0.00 0.00 34 1008.8
20260505221111 16 210 6.4 6.4 0.00 0.00 0.00 34 1008.8
20260505220611 16 149 0.0 3.2 0.00 0.00 0.00 34 1008.8
20260505220110 16 223 0.0 0.0 0.00 0.00 0.00 34 1008.8
20260505215610 17 223 0.0 4.8 0.00 0.00 0.00 33 1008.8
20260505215110 17 196 0.0 6.4 0.00 0.00 0.00 33 1008.8
20260505214610 17 215 1.6 6.4 0.00 0.00 0.00 33 1008.8
20260505214109 17 163 0.0 3.2 0.00 0.00 0.00 33 1008.8
20260505213609 17 194 0.0 3.2 0.00 0.00 0.00 33 1008.8
20260505213109 17 102 0.0 0.0 0.00 0.00 0.00 34 1008.8
20260505212608 16 102 0.0 0.0 0.00 0.00 0.00 34 1008.8
20260505212108 16 102 0.0 0.0 0.00 0.00 0.00 35 1008.8
20260505211608 16 102 0.0 0.0 0.00 0.00 0.00 35 1008.7
20260505211108 16 102 0.0 1.6 0.00 0.00 0.00 35 1008.8
20260505210607 16 170 0.0 0.0 0.00 0.00 0.00 36 1008.8
20260505210107 16 170 0.0 1.6 0.00 0.00 0.00 36 1008.7
20260505205607 16 170 0.0 3.2 0.00 0.00 0.00 35 1008.8
20260505205107 16 160 0.0 0.0 0.00 0.00 0.00 35 1008.7
20260505204606 17 160 0.0 0.0 0.00 0.00 0.00 34 1008.7
20260505204106 17 160 0.0 1.6 0.00 0.00 0.00 34 1008.8
20260505203606 17 160 1.6 1.6 0.00 0.00 0.00 34 1008.7
20260505203105 17 177 0.0 3.2 0.00 0.00 0.00 33 1008.6
20260505202605 17 184 0.0 0.0 0.00 0.00 0.00 32 1008.6
20260505202105 17 184 0.0 0.0 0.00 0.00 0.00 32 1008.6
20260505201605 18 184 0.0 0.0 0.00 0.00 0.00 31 1008.5
20260505201104 18 184 0.0 0.0 0.00 0.00 0.00 30 1008.5
20260505200604 18 184 0.0 1.6 0.00 0.00 0.00 30 1008.5
20260505200104 18 213 0.0 4.8 0.00 0.00 0.00 30 1008.5
20260505195603 18 194 0.0 3.2 0.00 0.00 0.00 29 1008.5
20260505195103 18 153 0.0 9.7 0.00 0.00 0.00 30 1008.4
20260505194603 18 180 0.0 0.0 0.00 0.00 0.00 30 1008.4
20260505194103 18 180 0.0 3.2 0.00 0.00 0.00 30 1008.4
20260505193602 18 210 0.0 3.2 0.00 0.00 0.00 29 1008.3
20260505193102 18 191 0.0 1.6 0.00 0.00 0.00 29 1008.4
20260505192602 18 168 0.0 6.4 0.00 0.00 0.00 29 1008.4
20260505192101 18 150 0.0 0.0 0.00 0.00 0.00 29 1008.4
20260505191601 18 150 0.0 0.0 0.00 0.00 0.00 29 1008.4
20260505191101 18 150 0.0 3.2 0.00 0.00 0.00 29 1008.3
20260505190601 18 199 1.6 6.4 0.00 0.00 0.00 28 1008.3
20260505190100 18 208 0.0 0.0 0.00 0.00 0.00 29 1008.3
20260505185600 18 208 0.0 0.0 0.00 0.00 0.00 28 1008.3
20260505185100 19 208 0.0 8.0 0.00 0.00 0.00 28 1008.3
20260505184559 19 203 0.0 0.0 0.00 0.00 0.00 28 1008.2
20260505184059 19 203 0.0 0.0 0.00 0.00 0.00 27 1008.2
20260505183559 20 203 0.0 0.0 0.00 0.00 0.00 27 1008.2
20260505183059 20 203 0.0 0.0 0.00 0.00 0.00 25 1008.2
20260505182558 20 203 0.0 0.0 0.00 0.00 0.00 25 1008.2
20260505182058 20 203 0.0 6.4 0.00 0.00 0.00 25 1008.2
20260505181558 20 229 0.0 11.3 0.00 0.00 0.00 25 1008.1
20260505181057 20 189 0.0 9.7 0.00 0.00 0.00 24 1008.1
20260505180557 21 180 1.6 4.8 0.00 0.00 0.00 24 1008.0
20260505180057 21 151 0.0 9.7 0.00 0.00 0.00 23 1008.0
20260505175557 21 203 6.4 6.4 0.00 0.00 0.00 23 1008.0
20260505175056 21 153 0.0 11.3 0.00 0.00 0.00 23 1008.0
20260505174556 21 153 0.0 8.0 0.00 0.00 0.00 23 1008.0
20260505174056 21 246 3.2 11.3 0.00 0.00 0.00 22 1008.0
20260505173555 21 165 1.6 9.7 0.00 0.00 0.00 22 1007.9
20260505173055 21 196 1.6 14.5 0.00 0.00 0.00 21 1007.9
20260505172555 21 203 6.4 11.3 0.00 0.00 0.00 21 1007.9
20260505172055 21 156 6.4 14.5 0.00 0.00 0.00 20 1007.9
20260505171554 22 203 9.7 17.7 0.00 0.00 0.00 20 1007.8
20260505171054 22 177 3.2 12.9 0.00 0.00 0.00 20 1007.8
20260505170554 22 198 4.8 16.1 0.00 0.00 0.00 19 1007.8
20260505170053 22 229 4.8 19.3 0.00 0.00 0.00 19 1007.8
20260505165553 22 203 8.0 17.7 0.00 0.00 0.00 18 1007.8
20260505165053 22 175 0.0 16.1 0.00 0.00 0.00 19 1007.8
20260505164553 22 216 9.7 17.7 0.00 0.00 0.00 18 1007.8
20260505164052 22 198 6.4 22.5 0.00 0.00 0.00 17 1007.9
20260505163552 23 213 4.8 17.7 0.00 0.00 0.00 18 1007.9
20260505163052 23 213 16.1 19.3 0.00 0.00 0.00 19 1007.9
20260505162552 23 163 8.0 27.4 0.00 0.00 0.00 16 1007.9
20260505162051 23 201 9.7 19.3 0.00 0.00 0.00 17 1007.8
20260505161551 23 201 3.2 24.1 0.00 0.00 0.00 17 1007.9
20260505161051 23 180 4.8 17.7 0.00 0.00 0.00 17 1007.9
20260505160550 23 217 14.5 24.1 0.00 0.00 0.00 17 1007.9
20260505153048 23 198 14.5 30.6 0.00 0.00 0.00 15 1008.0
20260505152548 23 213 6.4 22.5 0.00 0.00 0.00 15 1008.0
20260505152048 23 234 9.7 25.7 0.00 0.00 0.00 15 1008.1
20260505151548 23 123 14.5 22.5 0.00 0.00 0.00 15 1008.0
20260505151047 23 220 12.9 19.3 0.00 0.00 0.00 15 1008.1
20260505150547 23 153 9.7 20.9 0.00 0.00 0.00 15 1008.1
20260505140544 25 216 6.4 24.1 0.00 0.00 0.00 17 1008.8
20260505125039 24 209 9.7 24.1 0.00 0.00 0.00 17 1009.6
20260505124539 24 251 8.0 24.1 0.00 0.00 0.00 17 1009.7
20260505124039 24 208 14.5 25.7 0.00 0.00 0.00 18 1009.8
20260505123538 24 213 14.5 29.0 0.00 0.00 0.00 18 1009.9
20260505123038 24 171 11.3 20.9 0.00 0.00 0.00 17 1010.0
20260505122538 25 178 9.7 20.9 0.00 0.00 0.00 18 1010.0
20260505122038 25 236 6.4 20.9 0.00 0.00 0.00 18 1010.1
20260505121537 24 209 14.5 20.9 0.00 0.00 0.00 19 1010.2
20260505121037 24 236 12.9 30.6 0.00 0.00 0.00 17 1010.3
20260505120537 24 168 6.4 19.3 0.00 0.00 0.00 18 1010.2
20260505120036 24 212 8.0 22.5 0.00 0.00 0.00 18 1010.4
20260505115536 23 203 6.4 19.3 0.00 0.00 0.00 18 1010.4